Location: Del Amo
(33.8464°N, 118.2104°W)
Time: 03:44:39
(UTC+00:00)

Vanguard 2 Rocket - Pass Details

Date: 22 September 2024
Orbit: 553 x 3299 km, 32.9° (Epoch: 05 October)

Event Time Altitude Azimuth Distance (km) Brightness Sun altitude
Rises 05:54:37 0° 221° (SW) 3,010 - -47.2°
Reaches altitude 10° 05:56:47 10° 211° (SSW) 2,274 - -47.5°
Maximum altitude 06:01:32 34° 146° (SE) 1,574 - -48.2°
Drops below altitude 10° 06:08:56 10° 85° (E) 3,598 - -49.2°
Sets 06:13:16 0° 78° (ENE) 5,078 - -49.7°
